FW5619 Weather Reports


Display with metric or nautical units.
time (UTC)temp
F
wind
direction
speed
MPH
gust
MPH
rain 1hr
in
rain 24hr
in
rain mn
in
humidity
%
barometer
mb
20260504193037 57 148 18.0 28.0 0.00 0.00 0.00 78 1012.4
20260504192535 57 215 18.0 30.0 0.00 0.00 0.00 77 1012.5
20260504192035 57 192 22.0 31.0 0.00 0.00 0.00 78 1012.5
20260504191539 57 195 18.0 31.0 0.00 0.00 0.00 78 1012.6
20260504191036 57 180 18.0 33.0 0.00 0.00 0.00 78 1012.6
20260504190534 57 199 24.0 33.0 0.00 0.00 0.00 77 1012.6
20260504190037 57 196 22.0 33.0 0.00 0.00 0.00 77 1013.0
20260504185533 57 174 18.0 29.0 0.00 0.00 0.00 78 1012.8
20260504185032 57 211 19.0 29.0 0.00 0.00 0.00 77 1012.8
20260504184535 57 202 20.0 29.0 0.00 0.00 0.00 77 1012.9
20260504184031 57 178 19.0 31.0 0.00 0.00 0.00 78 1013.0
20260504183531 57 182 19.0 28.0 0.00 0.00 0.00 78 1013.0
20260504183033 57 179 17.0 29.0 0.00 0.00 0.00 78 1012.9
20260504182529 57 207 18.0 29.0 0.00 0.00 0.00 78 1013.0
20260504182029 57 201 18.0 29.0 0.00 0.00 0.00 77 1013.2
20260504181529 57 207 16.0 24.0 0.00 0.00 0.00 78 1013.1
20260504181031 57 203 15.0 23.0 0.00 0.00 0.00 78 1013.3
20260504180531 57 238 15.0 25.0 0.00 0.00 0.00 78 1013.3
20260504180029 57 219 16.0 26.0 0.00 0.00 0.00 78 1013.3
20260504175528 57 205 20.0 30.0 0.00 0.00 0.00 79 1013.3
20260504175031 56 201 21.0 26.0 0.00 0.00 0.00 78 1013.3
20260504174527 56 200 18.0 25.0 0.00 0.00 0.00 79 1013.3
20260504174026 56 184 18.0 25.0 0.00 0.00 0.00 79 1013.4
20260504173525 56 202 17.0 29.0 0.00 0.00 0.00 79 1013.5
20260504173026 56 198 20.0 29.0 0.00 0.00 0.00 79 1013.5
20260504172624 56 202 19.0 27.0 0.00 0.00 0.00 80 1013.5
20260504172024 56 199 18.0 29.0 0.00 0.00 0.00 80 1013.6
20260504171524 56 192 18.0 29.0 0.00 0.00 0.00 79 1013.6
20260504171023 56 199 15.0 29.0 0.00 0.00 0.00 79 1013.7
20260504170522 56 190 15.0 22.0 0.00 0.00 0.00 78 1013.8
20260504151015 59 230 8.0 14.0 0.00 0.00 0.00 67 1015.3
20260504150514 59 286 6.0 14.0 0.00 0.00 0.00 66 1015.2
20260504141010 58 260 8.0 17.0 0.00 0.00 0.00 64 1015.3
20260504140510 58 219 8.0 19.0 0.00 0.00 0.00 62 1015.3
20260504130502 56 229 9.0 18.0 0.00 0.00 0.00 65 1015.9
20260504110544 52 249 9.0 19.0 0.00 0.00 0.00 67 1016.2
20260504100537 50 231 4.0 9.0 0.00 0.00 0.00 74 1016.3
20260504081537 51 360 5.0 11.0 0.00 0.00 0.00 62 1015.7
20260504081021 51 360 5.0 11.0 0.00 0.00 0.00 61 1015.6
20260504080521 51 360 5.0 10.0 0.00 0.00 0.00 61 1015.5
20260504050557 53 246 8.0 14.0 0.00 0.00 0.00 64 1014.7
20260504045556 53 246 7.0 12.0 0.00 0.00 0.00 63 1014.7
20260504045054 53 244 7.0 13.0 0.00 0.00 0.00 63 1014.7
20260504044554 53 248 8.0 13.0 0.00 0.00 0.00 62 1014.5
20260504044054 53 244 7.0 12.0 0.00 0.00 0.00 62 1014.6
20260504043553 53 244 7.0 15.0 0.00 0.00 0.00 62 1014.5
20260504043057 52 243 8.0 15.0 0.00 0.00 0.00 62 1014.6
20260504042551 53 243 7.0 11.0 0.00 0.00 0.00 62 1014.6
20260504042052 53 243 6.0 14.0 0.00 0.00 0.00 61 1014.5
20260504041550 53 242 9.0 14.0 0.00 0.00 0.00 60 1014.5
20260504041053 53 246 7.0 13.0 0.00 0.00 0.00 60 1014.4
20260504040547 53 244 7.0 13.0 0.00 0.00 0.00 59 1014.4
20260504040047 53 246 7.0 13.0 0.00 0.00 0.00 59 1014.3
20260504035547 53 247 7.0 13.0 0.00 0.00 0.00 59 1014.1
20260504035047 53 246 8.0 12.0 0.00 0.00 0.00 60 1014.3
20260504034548 53 246 6.0 11.0 0.00 0.00 0.00 61 1014.3
20260504034045 53 360 4.0 11.0 0.00 0.00 0.00 65 1014.3
20260504033548 53 360 6.0 11.0 0.00 0.00 0.00 60 1014.3
20260504033046 53 360 6.0 12.0 0.00 0.00 0.00 60 1014.3
20260504032545 53 360 9.0 12.0 0.00 0.00 0.00 60 1014.4
20260504032048 53 360 6.0 11.0 0.00 0.00 0.00 60 1014.3
20260504031545 53 360 6.0 9.0 0.00 0.00 0.00 60 1014.4
20260504031044 53 259 6.0 11.0 0.00 0.00 0.00 59 1014.4
20260504030543 53 259 6.0 11.0 0.00 0.00 0.00 58 1014.4
20260504030044 54 257 5.0 13.0 0.00 0.00 0.00 57 1014.3
20260504025544 54 258 5.0 11.0 0.00 0.00 0.00 58 1014.2
20260504025044 54 258 6.0 10.0 0.00 0.00 0.00 58 1014.2
20260504024545 54 258 6.0 12.0 0.00 0.00 0.00 58 1014.3
20260504024044 54 258 7.0 12.0 0.00 0.00 0.00 58 1014.3
20260504023543 54 259 7.0 10.0 0.00 0.00 0.00 57 1014.2
20260504023041 54 259 7.0 10.0 0.00 0.00 0.00 56 1014.3
20260504022542 54 260 7.0 10.0 0.00 0.00 0.00 55 1014.2
20260504022041 54 261 6.0 10.0 0.00 0.00 0.00 56 1014.2
20260504021541 54 261 6.0 10.0 0.00 0.00 0.00 57 1014.2
20260504021042 54 262 6.0 10.0 0.00 0.00 0.00 57 1014.2
20260504020540 54 263 6.0 11.0 0.00 0.00 0.00 57 1014.1
20260504020115 54 267 6.0 11.0 0.00 0.00 0.00 58 1014.2
20260504015540 54 274 6.0 9.0 0.00 0.00 0.00 63 1014.2
20260504015039 54 281 5.0 7.0 0.00 0.00 0.00 60 1014.1
20260504014553 55 283 2.0 8.0 0.00 0.00 0.00 53 1014.1
20260504014037 55 283 3.0 8.0 0.00 0.00 0.00 52 1014.1
20260504013536 54 284 5.0 8.0 0.00 0.00 0.00 52 1014.0
20260504013045 55 286 2.0 5.0 0.00 0.00 0.00 52 1014.0
20260504012538 55 286 2.0 6.0 0.00 0.00 0.00 49 1014.0
20260504012035 55 286 3.0 5.0 0.00 0.00 0.00 48 1013.9
20260504011535 55 286 2.0 5.0 0.00 0.00 0.00 47 1013.8
20260504011035 55 286 3.0 7.0 0.00 0.00 0.00 46 1013.7
20260504010535 55 286 3.0 7.0 0.00 0.00 0.00 46 1013.6
20260504010037 55 294 4.0 7.0 0.00 0.00 0.00 47 1013.6
20260504005533 55 298 3.0 5.0 0.00 0.00 0.00 47 1013.5
20260504005032 56 298 2.0 4.0 0.00 0.00 0.00 39 1013.4
20260504004539 56 298 1.0 4.0 0.00 0.00 0.00 36 1013.4
20260504004032 56 298 2.0 4.0 0.00 0.00 0.00 36 1013.3
20260504003532 56 298 0.0 4.0 0.00 0.00 0.00 36 1013.3
20260504003031 57 360 1.0 4.0 0.00 0.00 0.00 36 1013.2
20260504002532 57 298 1.0 7.0 0.00 0.00 0.00 35 1013.1
20260504002032 57 298 2.0 7.0 0.00 0.00 0.00 34 1013.1
20260504001541 57 298 2.0 6.0 0.00 0.00 0.00 34 1012.9
20260504001033 58 300 3.0 6.0 0.00 0.00 0.00 34 1012.9
20260504000534 58 302 2.0 9.0 0.00 0.00 0.00 35 1012.9
20260504000032 58 301 3.0 9.0 0.00 0.00 0.00 34 1012.7
20260503235531 58 302 5.0 12.0 0.00 0.00 0.00 32 1012.7
20260503235031 58 302 6.0 12.0 0.00 0.00 0.00 31 1012.6
20260503234530 59 269 6.0 15.0 0.00 0.00 0.00 32 1012.5
20260503234031 59 305 7.0 17.0 0.00 0.00 0.00 32 1012.5
20260503233530 59 311 10.0 17.0 0.00 0.00 0.00 31 1012.3
20260503233035 59 321 8.0 12.0 0.00 0.00 0.00 31 1012.3
20260503232530 59 295 6.0 11.0 0.00 0.00 0.00 31 1012.3
20260503232030 59 281 7.0 13.0 0.00 0.00 0.00 32 1012.2
20260503231530 59 296 6.0 17.0 0.00 0.00 0.00 30 1012.2
20260503231029 59 345 8.0 17.0 0.00 0.00 0.00 29 1012.2
20260503230530 59 303 9.0 16.0 0.00 0.00 0.00 31 1012.1
20260503230029 59 325 8.0 16.0 0.00 0.00 0.00 31 1012.1
20260503225528 59 296 9.0 18.0 0.00 0.00 0.00 30 1012.2
20260503225030 59 317 9.0 19.0 0.00 0.00 0.00 30 1012.2
20260503224527 59 321 10.0 20.0 0.00 0.00 0.00 30 1012.2
20260503224029 59 299 10.0 20.0 0.00 0.00 0.00 31 1012.1
20260503223528 59 249 9.0 22.0 0.00 0.00 0.00 30 1012.1
20260503223027 59 281 13.0 22.0 0.00 0.00 0.00 31 1012.1
20260503222526 59 306 10.0 23.0 0.00 0.00 0.00 30 1012.1
20260503222026 59 255 9.0 23.0 0.00 0.00 0.00 31 1012.1
20260503221526 59 312 12.0 23.0 0.00 0.00 0.00 30 1012.1
20260503221025 59 286 13.0 21.0 0.00 0.00 0.00 30 1012.1
20260503220526 59 290 10.0 21.0 0.00 0.00 0.00 30 1012.0
20260503220026 59 301 12.0 19.0 0.00 0.00 0.00 31 1012.0
20260503215525 59 302 11.0 19.0 0.00 0.00 0.00 31 1012.0
20260503215023 59 288 13.0 23.0 0.00 0.00 0.00 30 1012.0
20260503214523 59 288 14.0 23.0 0.00 0.00 0.00 31 1012.1
20260503214026 59 308 13.0 30.0 0.00 0.00 0.00 30 1012.1
20260503213523 59 311 12.0 30.0 0.00 0.00 0.00 31 1012.0
20260503213022 59 295 12.0 23.0 0.00 0.00 0.00 32 1011.9
20260503212522 59 298 11.0 31.0 0.00 0.00 0.00 31 1011.9
20260503212022 59 306 12.0 31.0 0.00 0.00 0.00 31 1011.9
20260503211521 59 305 14.0 27.0 0.00 0.00 0.00 32 1011.7
20260503211021 58 306 16.0 27.0 0.00 0.00 0.00 31 1011.8
20260503210525 59 303 16.0 25.0 0.00 0.00 0.00 31 1011.7
20260503210020 58 319 12.0 25.0 0.00 0.00 0.00 32 1011.5
20260503205520 59 313 9.0 29.0 0.00 0.00 0.00 32 1011.7
20260503205020 59 297 15.0 29.0 0.00 0.00 0.00 31 1011.8
20260503204519 58 302 10.0 22.0 0.00 0.00 0.00 32 1011.7
20260503204018 58 286 13.0 24.0 0.00 0.00 0.00 33 1011.8
20260503203517 58 304 12.0 24.0 0.00 0.00 0.00 33 1011.8
20260503203040 58 298 9.0 21.0 0.00 0.00 0.00 34 1011.7
20260503202517 58 350 13.0 21.0 0.00 0.00 0.00 33 1011.7
20260503202017 58 309 11.0 27.0 0.00 0.00 0.00 35 1011.8
20260503201517 58 298 17.0 26.0 0.00 0.00 0.00 33 1011.7
20260503201016 58 284 10.0 22.0 0.00 0.00 0.00 34 1011.6
20260503200516 58 347 11.0 25.0 0.00 0.00 0.00 34 1011.7
20260503200016 58 306 16.0 26.0 0.00 0.00 0.00 34 1011.8
20260503195516 57 311 16.0 26.0 0.00 0.00 0.00 35 1011.9
20260503195014 58 320 11.0 21.0 0.00 0.00 0.00 35 1011.9
20260503194531 58 304 9.0 18.0 0.00 0.00 0.00 36 1011.8
20260503194013 57 298 7.0 21.0 0.00 0.00 0.00 36 1011.8
20260503193514 57 315 11.0 21.0 0.00 0.00 0.00 37 1012.0